User: anonymous   Login
Location: Unspecified
(0.0000°N, 0.0000°E)
Time: 06:41:10
(UTC+00:00)
Language:

QZS-4 - Orbit

View from above orbital plane
View from above orbital plane
View from above satellite
View from above satellite

Ground track
Ground track

The orbit is defined by the following mean orbital elements,

1 42965U          26144.39920994 +.00000000 +00000-0 +00000-0 0 00001
2 42965  40.1220 343.7839 0745359 271.4032 269.2555  1.00258100    07
Epoch (UTC): 24 May 2026 09:34:51
Eccentricity: 0.0745359
inclination: 40.1220°
perigee height: 32647 km
apogee height: 38934 km
right ascension of ascending node: 343.7839°
argument of perigee: 271.4032°
revolutions per day: 1.00258100
mean anomaly at epoch: 269.2555°

The dashed part of the orbit path shows where the satellite is in the earth's shadow,  

DLR